![]() |
EMODnet Physics ERDDAP
Easier access to scientific data |
log in|
Brought to you by EMODnet Physics |
| Dataset Title: | NDBC - Collection of dew point temperature (DEWT) TimeSeries - IN SITU MultiPointTimeSeriesObservation
|
| Institution: | NDBC (Dataset ID: TS_DEWT_NDBC) |
| Information: | Summary
| License
| FGDC
| ISO 19115
| Metadata
| Background
| Subset
| Data Access Form
| Make a graph
|
| Name | Last modified | Size | Description | |
|---|---|---|---|---|
| Parent Directory | - | - | ||
| LTJF1_TS_DEWT_012015.nc | 22-Dec-2024 04:03 | 1143182 | ||
| LTJF1_TS_DEWT_012016.nc | 22-Dec-2024 04:07 | 1143284 | ||
| LTJF1_TS_DEWT_012017.nc | 22-Dec-2024 04:10 | 1143221 | ||
| LTJF1_TS_DEWT_012018.nc | 22-Dec-2024 04:14 | 1142749 | ||
| LTJF1_TS_DEWT_012019.nc | 22-Dec-2024 04:17 | 1143206 | ||
| LTJF1_TS_DEWT_012020.nc | 22-Dec-2024 04:21 | 1143247 | ||
| LTJF1_TS_DEWT_012021.nc | 22-Dec-2024 04:24 | 1143247 | ||
| LTJF1_TS_DEWT_012022.nc | 22-Dec-2024 04:28 | 916993 | ||
| LTJF1_TS_DEWT_012023.nc | 22-Dec-2024 04:32 | 1143213 | ||
| LTJF1_TS_DEWT_012025.nc | 07-Feb-2025 12:57 | 1143212 | ||
| LTJF1_TS_DEWT_012026.nc | 02-Feb-2026 19:18 | 994835 | ||
| LTJF1_TS_DEWT_022015.nc | 22-Dec-2024 04:03 | 994917 | ||
| LTJF1_TS_DEWT_022016.nc | 22-Dec-2024 04:07 | 994728 | ||
| LTJF1_TS_DEWT_022017.nc | 22-Dec-2024 04:10 | 994594 | ||
| LTJF1_TS_DEWT_022018.nc | 22-Dec-2024 04:14 | 994786 | ||
| LTJF1_TS_DEWT_022019.nc | 22-Dec-2024 04:18 | 994831 | ||
| LTJF1_TS_DEWT_022020.nc | 22-Dec-2024 04:21 | 994863 | ||
| LTJF1_TS_DEWT_022021.nc | 22-Dec-2024 04:25 | 994910 | ||
| LTJF1_TS_DEWT_022022.nc | 22-Dec-2024 04:28 | 994837 | ||
| LTJF1_TS_DEWT_022023.nc | 22-Dec-2024 04:32 | 994733 | ||
| LTJF1_TS_DEWT_022025.nc | 01-Mar-2025 08:07 | 994675 | ||
| LTJF1_TS_DEWT_022026.nc | 01-Mar-2026 10:38 | 994846 | ||
| LTJF1_TS_DEWT_032014.nc | 22-Dec-2024 04:00 | 994329 | ||
| LTJF1_TS_DEWT_032015.nc | 22-Dec-2024 04:04 | 994812 | ||
| LTJF1_TS_DEWT_032016.nc | 22-Dec-2024 04:07 | 994841 | ||
| LTJF1_TS_DEWT_032017.nc | 22-Dec-2024 04:11 | 1143311 | ||
| LTJF1_TS_DEWT_032018.nc | 22-Dec-2024 04:14 | 1143229 | ||
| LTJF1_TS_DEWT_032019.nc | 22-Dec-2024 04:18 | 1143066 | ||
| LTJF1_TS_DEWT_032020.nc | 22-Dec-2024 04:21 | 1143191 | ||
| LTJF1_TS_DEWT_032021.nc | 22-Dec-2024 04:25 | 912126 | ||
| LTJF1_TS_DEWT_032022.nc | 22-Dec-2024 04:28 | 1143280 | ||
| LTJF1_TS_DEWT_032023.nc | 22-Dec-2024 04:32 | 1143362 | ||
| LTJF1_TS_DEWT_032025.nc | 02-Apr-2025 06:03 | 1143079 | ||
| LTJF1_TS_DEWT_032026.nc | 25-Mar-2026 14:13 | 1143284 | ||
| LTJF1_TS_DEWT_042014.nc | 22-Dec-2024 04:00 | 1143362 | ||
| LTJF1_TS_DEWT_042015.nc | 22-Dec-2024 04:04 | 1143195 | ||
| LTJF1_TS_DEWT_042016.nc | 22-Dec-2024 04:07 | 1143291 | ||
| LTJF1_TS_DEWT_042017.nc | 22-Dec-2024 04:11 | 425432 | ||
| LTJF1_TS_DEWT_042018.nc | 22-Dec-2024 04:15 | 1143205 | ||
| LTJF1_TS_DEWT_042020.nc | 22-Dec-2024 04:21 | 1143315 | ||
| LTJF1_TS_DEWT_042021.nc | 22-Dec-2024 04:25 | 1143364 | ||
| LTJF1_TS_DEWT_042022.nc | 22-Dec-2024 04:29 | 1142644 | ||
| LTJF1_TS_DEWT_042023.nc | 22-Dec-2024 04:32 | 1142874 | ||
| LTJF1_TS_DEWT_042025.nc | 01-May-2025 06:48 | 1142976 | ||
| LTJF1_TS_DEWT_052014.nc | 22-Dec-2024 04:01 | 423391 | ||
| LTJF1_TS_DEWT_052015.nc | 22-Dec-2024 04:04 | 1143313 | ||
| LTJF1_TS_DEWT_052016.nc | 22-Dec-2024 04:08 | 1143313 | ||
| LTJF1_TS_DEWT_052017.nc | 22-Dec-2024 04:11 | 1143196 | ||
| LTJF1_TS_DEWT_052018.nc | 22-Dec-2024 04:15 | 1143225 | ||
| LTJF1_TS_DEWT_052020.nc | 22-Dec-2024 04:22 | 1143241 | ||
| LTJF1_TS_DEWT_052021.nc | 22-Dec-2024 04:25 | 1143276 | ||
| LTJF1_TS_DEWT_052022.nc | 22-Dec-2024 04:29 | 1142937 | ||
| LTJF1_TS_DEWT_052023.nc | 22-Dec-2024 04:33 | 1143233 | ||
| LTJF1_TS_DEWT_052025.nc | 01-Jun-2025 07:33 | 1143079 | ||
| LTJF1_TS_DEWT_062014.nc | 22-Dec-2024 04:01 | 1143181 | ||
| LTJF1_TS_DEWT_062015.nc | 22-Dec-2024 04:04 | 994877 | ||
| LTJF1_TS_DEWT_062016.nc | 22-Dec-2024 04:08 | 994702 | ||
| LTJF1_TS_DEWT_062017.nc | 22-Dec-2024 04:12 | 994514 | ||
| LTJF1_TS_DEWT_062018.nc | 22-Dec-2024 04:15 | 994756 | ||
| LTJF1_TS_DEWT_062020.nc | 22-Dec-2024 04:22 | 914620 | ||
| LTJF1_TS_DEWT_062021.nc | 22-Dec-2024 04:26 | 994869 | ||
| LTJF1_TS_DEWT_062022.nc | 22-Dec-2024 04:29 | 994882 | ||
| LTJF1_TS_DEWT_062023.nc | 22-Dec-2024 04:33 | 994838 | ||
| LTJF1_TS_DEWT_062025.nc | 17-Jun-2025 05:57 | 994817 | ||
| LTJF1_TS_DEWT_072014.nc | 22-Dec-2024 04:01 | 418876 | ||
| LTJF1_TS_DEWT_072015.nc | 22-Dec-2024 04:05 | 994834 | ||
| LTJF1_TS_DEWT_072016.nc | 22-Dec-2024 04:08 | 994742 | ||
| LTJF1_TS_DEWT_072017.nc | 22-Dec-2024 04:12 | 994863 | ||
| LTJF1_TS_DEWT_072018.nc | 22-Dec-2024 04:16 | 994785 | ||
| LTJF1_TS_DEWT_072019.nc | 22-Dec-2024 04:19 | 994859 | ||
| LTJF1_TS_DEWT_072020.nc | 22-Dec-2024 04:22 | 598800 | ||
| LTJF1_TS_DEWT_072021.nc | 22-Dec-2024 04:26 | 1143088 | ||
| LTJF1_TS_DEWT_072022.nc | 22-Dec-2024 04:30 | 1143218 | ||
| LTJF1_TS_DEWT_072023.nc | 22-Dec-2024 04:33 | 1141982 | ||
| LTJF1_TS_DEWT_072025.nc | 16-Aug-2025 08:12 | 1142533 | ||
| LTJF1_TS_DEWT_082014.nc | 22-Dec-2024 04:01 | 917679 | ||
| LTJF1_TS_DEWT_082015.nc | 22-Dec-2024 04:05 | 1143316 | ||
| LTJF1_TS_DEWT_082016.nc | 22-Dec-2024 04:09 | 1143283 | ||
| LTJF1_TS_DEWT_082017.nc | 22-Dec-2024 04:12 | 1143187 | ||
| LTJF1_TS_DEWT_082018.nc | 22-Dec-2024 04:16 | 1143227 | ||
| LTJF1_TS_DEWT_082020.nc | 22-Dec-2024 04:23 | 1143006 | ||
| LTJF1_TS_DEWT_082021.nc | 22-Dec-2024 04:26 | 1143182 | ||
| LTJF1_TS_DEWT_082022.nc | 22-Dec-2024 04:30 | 1143066 | ||
| LTJF1_TS_DEWT_082023.nc | 22-Dec-2024 04:34 | 1143190 | ||
| LTJF1_TS_DEWT_082025.nc | 01-Sep-2025 08:07 | 1143319 | ||
| LTJF1_TS_DEWT_092014.nc | 22-Dec-2024 04:02 | 994480 | ||
| LTJF1_TS_DEWT_092015.nc | 22-Dec-2024 04:05 | 994644 | ||
| LTJF1_TS_DEWT_092016.nc | 22-Dec-2024 04:09 | 994415 | ||
| LTJF1_TS_DEWT_092017.nc | 22-Dec-2024 04:13 | 994594 | ||
| LTJF1_TS_DEWT_092018.nc | 22-Dec-2024 04:16 | 994785 | ||
| LTJF1_TS_DEWT_092020.nc | 22-Dec-2024 04:23 | 994791 | ||
| LTJF1_TS_DEWT_092021.nc | 22-Dec-2024 04:27 | 994878 | ||
| LTJF1_TS_DEWT_092022.nc | 22-Dec-2024 04:30 | 994845 | ||
| LTJF1_TS_DEWT_092023.nc | 22-Dec-2024 04:34 | 994871 | ||
| LTJF1_TS_DEWT_092025.nc | 01-Oct-2025 08:33 | 994808 | ||
| LTJF1_TS_DEWT_102014.nc | 22-Dec-2024 04:02 | 994765 | ||
| LTJF1_TS_DEWT_102015.nc | 22-Dec-2024 04:06 | 994834 | ||
| LTJF1_TS_DEWT_102016.nc | 22-Dec-2024 04:09 | 993722 | ||
| LTJF1_TS_DEWT_102017.nc | 22-Dec-2024 04:13 | 994716 | ||
| LTJF1_TS_DEWT_102018.nc | 22-Dec-2024 04:16 | 994924 | ||
| LTJF1_TS_DEWT_102019.nc | 22-Dec-2024 04:20 | 994776 | ||
| LTJF1_TS_DEWT_102020.nc | 22-Dec-2024 04:24 | 1142041 | ||
| LTJF1_TS_DEWT_102021.nc | 22-Dec-2024 04:27 | 1143051 | ||
| LTJF1_TS_DEWT_102022.nc | 22-Dec-2024 04:31 | 1142674 | ||
| LTJF1_TS_DEWT_102023.nc | 22-Dec-2024 04:34 | 1141785 | ||
| LTJF1_TS_DEWT_102024.nc | 12-Jan-2025 22:42 | 1143113 | ||
| LTJF1_TS_DEWT_102025.nc | 01-Nov-2025 08:07 | 916890 | ||
| LTJF1_TS_DEWT_112014.nc | 22-Dec-2024 04:02 | 1143289 | ||
| LTJF1_TS_DEWT_112015.nc | 22-Dec-2024 04:06 | 1143227 | ||
| LTJF1_TS_DEWT_112016.nc | 22-Dec-2024 04:10 | 1143126 | ||
| LTJF1_TS_DEWT_112017.nc | 22-Dec-2024 04:13 | 1143220 | ||
| LTJF1_TS_DEWT_112018.nc | 22-Dec-2024 04:17 | 994770 | ||
| LTJF1_TS_DEWT_112019.nc | 22-Dec-2024 04:20 | 1142423 | ||
| LTJF1_TS_DEWT_112020.nc | 22-Dec-2024 04:24 | 1143277 | ||
| LTJF1_TS_DEWT_112021.nc | 22-Dec-2024 04:27 | 1143172 | ||
| LTJF1_TS_DEWT_112022.nc | 22-Dec-2024 04:31 | 1143075 | ||
| LTJF1_TS_DEWT_112023.nc | 22-Dec-2024 04:35 | 1143181 | ||
| LTJF1_TS_DEWT_112024.nc | 17-Jan-2025 19:13 | 430105 | ||
| LTJF1_TS_DEWT_112025.nc | 02-Dec-2025 05:40 | 418951 | ||
| LTJF1_TS_DEWT_122014.nc | 22-Dec-2024 04:03 | 418935 | ||
| LTJF1_TS_DEWT_122015.nc | 22-Dec-2024 04:06 | 419105 | ||
| LTJF1_TS_DEWT_122017.nc | 22-Dec-2024 04:14 | 419006 | ||
| LTJF1_TS_DEWT_122018.nc | 22-Dec-2024 04:17 | 419230 | ||
| LTJF1_TS_DEWT_122019.nc | 22-Dec-2024 04:20 | 1262677 | ||
| LTJF1_TS_DEWT_122020.nc | 22-Dec-2024 04:24 | 1266736 | ||
| LTJF1_TS_DEWT_122021.nc | 22-Dec-2024 04:28 | 997203 | ||
| LTJF1_TS_DEWT_122022.nc | 22-Dec-2024 04:31 | 1142620 | ||
| LTJF1_TS_DEWT_122023.nc | 22-Dec-2024 04:35 | 1144450 | ||
| LTJF1_TS_DEWT_122024.nc | 22-Jan-2025 19:26 | 1142976 | ||
| LTJF1_TS_DEWT_122025.nc | 01-Jan-2026 07:04 | 1028180 | ||